MOVE-IIB (44398 NORAD) Tracking and Keplerian Element Data

This shows tracking and keplerian element data for the satellite.

Feedback or suggestion? Click here.




ElementValue
Catalog44398
NameMOVE-IIB
Epoch Orbit7199
Epoch Day297.9023219
Epoch Year2020
RAAN257.6156
Inclination97.5506
Eccentricity0.0026493
Argument of Perigee47.3507
Mean Anonmoly312.9951
Mean Motion15.12620815
Decay Rate1.682E-05
L11 44398U 19038N 20297.90232190 .00001682 00000-0 99296-4 0 9991
L22 44398 97.5506 257.6156 0026493 47.3507 312.9951 15.12620815 71991

Live tracking and technical data element details for MOVE-IIB (NORAD 44398). MOVE-IIB can be tracked NOW for your location showing map with azimuth and elevation plus other details from your city location.

Track the satellite on the map from your city or location and see movement details for azimuth, elevation, latitude, longitude, range, height, and movement on the map or in text.







IsCatalogInMostPopularTable: catalog: 44398, numindb: 97
Update: records affected: 1



GetName: 44398 MOVE-IIB

Hit Count: updated at: Sun, 25 Oct 2020 07:16:20 GMT